Zurück zum Katalog

DELTA 1 DEB

AktivSSO
NORAD 21338·DEBRIS·🇺🇸 United States

Gestartet Jun 12, 1975 von Vandenberg Space Force Base

Loading…

Nächste Überflüge (nächste 24 Stunden)

TLE

AktuellSource: Space-Track

Epoche: Sep 14, 2026, 14:33 UTC

1 21338U 75052BG  26257.60641530  .00000077  00000-0  23203-3 0  9990
2 21338  99.6380 167.2132 0061138  19.9215  98.6170 13.34991887720522

Verfolge DELTA 1 DEB in Echtzeit mit AllMySat

Download on the App Store